STARLINK-1478, 45755

Orbit data source: Space-Track

STARLINK-1478, 45755 is a payload satellite owned by SpaceX/Seattle (US) in LEO that was launched on Sat, 13 Jun 2020 UTC via an FALCON 9 launch vehicle from the Air Force Eastern Test Range (AFETR). Payload-class satellites include a variety of spacecraft equipped with specific instruments for various scientific and technological missions. These include communications satellites like Starlink; space stations such as the ISS; scientific satellites like the Hubble; Earth observation satellites from companies like Planet Labs, Umbra, and HawkEye 360; GPS; miniature CubeSats for education and research; and military/defense satellites.

Loading next visibility...
Identifier
45755, 2020-038AB
Orbit
LEO
Country
Flag of USUS
Related business
Manufacturer
SpaceX/Seattle
Mission
Partially operational Commercial Communications
Bus & Motor
STARLINK, Unknown motor
Mass
260 kg wet, ~248 kg dry
Launch date (UTC)
2020-06-13 (6 years ago)
Launch vehicle
FALCON 9
Launch site
Air Force Eastern Test Range (AFETR)
Object type
Payload
Rocket body
Debris
Shape & HBR
Box + 1 Pan, 10.1 m
Radar Cross Section
13.562 m², Large (>1 m²)

Expand to show TLE details & history
Last TLE update: 8 hours ago

TLE from 8 hours ago
0 STARLINK-1478
1 45755U 20038AB  26127.56412323  .00038652  00000-0  38754-3 0  9997
2 45755  53.0464 270.9940 0001602 324.7511  35.3397 15.65159353325927
Epoch: 2026-05-07T13:32Z
TLE epoch observation values (Epoch: 2026-05-07T13:32:20.247Z)
Latitude
-0.00002°
Longitude
-157.49883°
Altitude
372.799 km
Speed
7.688 km/s
True Right ascension
18h 03m 58s
True Declination
0° 00' 00"
Sunlit
Object was in full shadow at epoch
Visualization orbit readout
Latitude
Unknown
Longitude
Unknown
Altitude
Unknown
Speed
Unknown
Apparent Right ascension
Unknown
Apparent Declination
Unknown
Sunlit
N/A
Visualization observer readout
Local Sidereal Time
05:16:17
Azimuth
Unknown
Elevation
Unknown
Doppler factor
Unknown
Orbital elements
Apogee altitude
374.141 km
Perigee altitude
371.978 km
Semi-major axis
6,751.196 km
Eccentricity
0.00016
Inclination
53.0464°
RAAN
270.994°
Arg. of periapsis
324.7511°
True anomaly
35.35032°
Mean anomaly
35.3397°
Eccentric anomaly
35.34501°
Mean motion
3.91266 °/min
Orbital period
92.01 mins
BSTAR
0.00038754
Loading maneuver chart data...
Computing Atmospheric mass density...

Documentation

Showing up to 5 results
|